This is the latest recevied weather packets stored in our database for station/object OE3APM-13. If no packets are shown the sender has not sent any weather packets the latest 10 day(s).
| Time | Temp. | Humidity | Pressure | Rain* | Wind** | Luminosity | Snow |
|---|---|---|---|---|---|---|---|
| 1777617149 | 8.89° C | 63% | 1029.1 hPa | 0 mm | - | 434 W/m² | - |
| 1777616850 | 8.33° C | 62% | 1029 hPa | 0 mm | - | 418 W/m² | - |
| 1777616550 | 7.78° C | 64% | 1029 hPa | 0 mm | - | 403 W/m² | - |
| 1777616249 | 7.78° C | 65% | 1028.9 hPa | 0 mm | - | 388 W/m² | - |
| 1777615950 | 7.22° C | 63% | 1028.9 hPa | 0 mm | - | 373 W/m² | - |
| 1777615649 | 6.67° C | 64% | 1028.9 hPa | 0 mm | - | 360 W/m² | - |
| 1777615350 | 6.11° C | 72% | 1028.9 hPa | 0 mm | - | 345 W/m² | - |
| 1777615049 | 5.56° C | 74% | 1028.8 hPa | 0 mm | - | 330 W/m² | - |
| 1777614753 | 5.56° C | 75% | 1028.8 hPa | 0 mm | - | 315 W/m² | - |
| 1777614451 | 5° C | 76% | 1028.9 hPa | 0 mm | - | 301 W/m² | - |
| 1777614132 | 4.44° C | 79% | 1028.9 hPa | 0 mm | - | 285 W/m² | - |
| 1777613835 | 3.33° C | 82% | 1028.9 hPa | 0 mm | - | 271 W/m² | - |
| 1777613524 | 2.22° C | 86% | 1028.9 hPa | 0 mm | - | 255 W/m² | - |
| 1777613222 | 1.67° C | 88% | 1028.9 hPa | 0 mm | - | 239 W/m² | - |
| 1777612916 | 1.11° C | 88% | 1028.9 hPa | 0 mm | - | 221 W/m² | - |
| 1777612614 | 1.11° C | 88% | 1028.9 hPa | 0 mm | - | 204 W/m² | - |
| 1777612312 | 0.56° C | 89% | 1028.8 hPa | 0 mm | - | 185 W/m² | - |
| 1777612011 | 0.56° C | 89% | 1028.8 hPa | 0 mm | - | 171 W/m² | - |
| 1777611708 | 0° C | 90% | 1028.8 hPa | 0 mm | - | 153 W/m² | - |
| 1777611405 | 0° C | 91% | 1028.7 hPa | 0 mm | - | 135 W/m² | - |
| 1777611103 | -0.56° C | 92% | 1028.6 hPa | 0 mm | - | 120 W/m² | - |
| 1777610800 | -0.56° C | 92% | 1028.7 hPa | 0 mm | - | 105 W/m² | - |
| 1777610499 | -0.56° C | 92% | 1028.6 hPa | 0 mm | - | 91 W/m² | - |
| 1777610199 | -1.11° C | 91% | 1028.5 hPa | 0 mm | - | 81 W/m² | - |
| 1777609897 | -1.67° C | 91% | 1028.4 hPa | 0 mm | - | 72 W/m² | - |
* Rain latest hour (hover to see other rain measurements)
** Current wind speed in m/s (hover to see current wind gust speed)